User: anonymous   Login
Location: Ostrava
(49.8330°N, 18.2830°E)
Time: 05:16:59
(UTC+01:00)
Language:

Cosmos 1263 Rocket - Orbit

View from above orbital plane
View from above orbital plane
View from above satellite
View from above satellite

Ground track
Ground track

The orbit data is extracted from the following two-line orbital elements,

1 12389U 81033B   14330.48431817  .00063806  00000-0  72257-3 0  1592
2 12389 082.8686 309.7647 0163300 245.3991 265.4721 15.47506383734682
Epoch (UTC): 26 November 2014 11:37:25
Eccentricity: 0.0163300
inclination: 82.8686°
perigee height: 313 km
apogee height: 535 km
right ascension of ascending node: 309.7647°
argument of perigee: 245.3991°
revolutions per day: 15.47506383
mean anomaly at epoch: 265.4721°
orbit number at epoch: 73468

The dashed part of the orbit path shows where the satellite is in the earth's shadow,  

DLR